Weather in Irgakly

Russia / Stavropol Krai     44°21′37″N   44°44′45″E
temp.,
°C
wind,
m/s
gust,
m/s
humid.,
%
clouds,
%
prec.,
mm/h
press.,
hPa
HPBL,
m
15 april, thu
thu1500:00+10wnw4981100 0.0 1017282
03:00+9wnw4985100 0.0 1017234
06:00+8w598877 0.0 1018234
09:00+14w68600 0.0 1018712
12:00+19nw67394 0.0 10161438
15:00+20nw5635100 0.0 10161734
18:00+17nnw335297 0.0 101643
21:00+13nnw335966 0.0 101825
16 april, fri
fri1600:00+12nnw2367100 0.0 101819
03:00+11nw22705 0.0 101811
06:00+10nw117442 0.0 101910
09:00+17se12525 0.0 1020514
12:00+20ese34405 0.0 10181458
15:00+21e453727 0.0 10171918
18:00+19e465088 0.0 1017100
21:00+15e4455100 0.0 101961
17 april, sat
sat1700:00+13s2257100 0.0 101813
03:00+12se3355100 0.0 101726
06:00+12n2259100 0.0 101829
09:00+14nnw7875100 0.0 1020567
12:00+15nnw7770100 0.1 10211133
15:00+14nnw6770100 0.2 1022814
18:00+13nnw5778100 0.2 1023472
21:00+11wnw3589100 1.5 1023236
18 april, sun
sun1800:00+11w1187100 0.0 102253
03:00+11nne1186100 0.0 102222
06:00+11ese2285100 0.0 102191
09:00+13e3478100 0.0 1020594
12:00+16ese456899 0.0 10181090
15:00+18ese6759100 0.0 10161102
18:00+16nne2472100 0.1 101675
21:00+14e3375100 0.3 101735
19 april, mon
mon1900:00+11s3585100 0.0 101892
03:00+11sse3484100 0.0 101758
06:00+11ese2384100 0.0 101762
09:00+17ese346185 0.0 1016391
12:00+22e444994 0.0 1014851
15:00+23e4443100 0.0 10131417
18:00+20ene3556100 0.0 101372
21:00+15ese51164100 0.0 1012231